Volver al catálogo

COSMOS 468 DEB

ActivoLEO
NORAD 37887·DEBRIS·🇷🇺 Russia

Lanzado Dec 17, 1971 desde Plesetsk Cosmodrome

Loading…

Próximos Pases (próximas 24 horas)

TLE

EnvejeciendoSource: Space-Track

Época: Sep 9, 2026, 20:55 UTC

1 37887U 71114F   26252.87220251  .00000208  00000-0  70661-4 0  9995
2 37887  74.0162 300.5744 0014705 310.3962  49.5910 14.42661886269684

Sigue COSMOS 468 DEB en tiempo real con AllMySat

Download on the App Store